QPF
0.01 0.01 0.02 0.02 0.01 0.00 0.00 0.00 0.00 0.00 0.00 0.00 0.00 0.01 0.01 0.00 0.00 0.00 0.01 0.01 0.01 0.01 0.01 0.02 0.03 0.03 0.04 0.03 0.02 0.01 0.01 0.02 0.03 0.02 0.04 0.05 0.04 0.03 0.04 0.05 0.02 0.01 0.05
0.00 0.01 0.01 0.01 0.00 0.00 0.00 0.00 0.00 0.00 0.00 0.00 0.00 0.00 0.01 0.00 0.00 0.00 0.01 0.01 0.01 0.01 0.01 0.01 0.02 0.02 0.03 0.03 0.02 0.02 0.02 0.03 0.05 0.06 0.08 0.06 0.04 0.03 0.03 0.04 0.01 0.03 0.05
0.00 0.01 0.01 0.01 0.00 0.00 0.00 0.00 0.00 0.00 0.00 0.00 0.00 0.00 0.00 0.00 0.01 0.01 0.01 0.01 0.01 0.01 0.01 0.01 0.01 0.02 0.02 0.02 0.02 0.02 0.02 0.04 0.07 0.09 0.07 0.04 0.03 0.03 0.03 0.04 0.02 0.02 0.03
0.00 0.00 0.00 0.01 0.00 0.00 0.00 0.00 0.00 0.00 0.00 0.00 0.00 0.00 0.00 0.01 0.01 0.01 0.01 0.01 0.02 0.02 0.01 0.01 0.02 0.02 0.02 0.01 0.02 0.03 0.04 0.05 0.06 0.04 0.01 0.01 0.01 0.03 0.03 0.03 0.03 0.01 0.02
0.01 0.00 0.00 0.00 0.00 0.00 0.00 0.00 0.00 0.00 0.00 0.00 0.00 0.00 0.01 0.01 0.01 0.01 0.01 0.01 0.01 0.01 0.01 0.02 0.02 0.02 0.01 0.01 0.02 0.04 0.05 0.05 0.03 0.01 0.01 0.01 0.01 0.03 0.03 0.02 0.01 0.01 0.01
0.01 0.01 0.00 0.01 0.01 0.01 0.00 0.00 0.00 0.00 0.00 0.01 0.01 0.01 0.01 0.01 0.01 0.01 0.01 0.01 0.01 0.01 0.01 0.01 0.02 0.01 0.01 0.02 0.02 0.03 0.05 0.05 0.03 0.00 0.01 0.01 0.01 0.02 0.01 0.01 0.01 0.01 0.01
0.01 0.01 0.01 0.01 0.01 0.01 0.01 0.01 0.02 0.01 0.01 0.01 0.01 0.01 0.01 0.02 0.02 0.02 0.02 0.01 0.01 0.01 0.01 0.01 0.02 0.01 0.02 0.03 0.04 0.05 0.06 0.04 0.01 0.00 0.00 0.01 0.01 0.02 0.01 0.01 0.01 0.01 0.01
0.01 0.01 0.01 0.01 0.02 0.01 0.01 0.02 0.02 0.02 0.01 0.01 0.01 0.01 0.01 0.01 0.01 0.02 0.03 0.03 0.01 0.01 0.01 0.01 0.01 0.02 0.02 0.03 0.05 0.07 0.08 0.03 0.00 0.00 0.00 0.01 0.02 0.02 0.01 0.01 0.01 0.01 0.01
0.00 0.01 0.01 0.01 0.01 0.01 0.01 0.02 0.03 0.02 0.02 0.02 0.01 0.01 0.01 0.02 0.02 0.02 0.02 0.03 0.03 0.01 0.01 0.01 0.01 0.01 0.01 0.02 0.03 0.05 0.08 0.04 0.01 0.00 0.00 0.01 0.01 0.01 0.01 0.01 0.01 0.01 0.01
0.02 0.03 0.03 0.02 0.01 0.01 0.01 0.02 0.02 0.02 0.02 0.02 0.01 0.01 0.01 0.02 0.02 0.02 0.01 0.02 0.02 0.01 0.01 0.01 0.01 0.01 0.02 0.03 0.04 0.07 0.10 0.06 0.01 0.00 0.00 0.01 0.01 0.01 0.01 0.01 0.01 0.01 0.01
0.03 0.06 0.05 0.03 0.01 0.01 0.01 0.02 0.02 0.02 0.02 0.01 0.01 0.02 0.02 0.01 0.01 0.01 0.01 0.02 0.01 0.01 0.01 0.02 0.02 0.02 0.02 0.02 0.06 0.10 0.08 0.02 0.01 0.00 0.00 0.02 0.01 0.01 0.01 0.01 0.01 0.01 0.01
0.01 0.02 0.03 0.04 0.02 0.01 0.01 0.01 0.01 0.02 0.01 0.01 0.01 0.02 0.01 0.00 0.00 0.00 0.02 0.02 0.02 0.02 0.01 0.01 0.02 0.01 0.01 0.01 0.04 0.05 0.02 0.01 0.01 0.00 0.01 0.03 0.04 0.04 0.03 0.03 0.02 0.02 0.01
0.01 0.01 0.02 0.03 0.04 0.02 0.01 0.01 0.01 0.01 0.01 0.01 0.01 0.01 0.01 0.01 0.00 0.00 0.01 0.01 0.01 0.01 0.01 0.01 0.02 0.01 0.01 0.02 0.02 0.02 0.02 0.02 0.01 0.00 0.01 0.03 0.05 0.04 0.03 0.04 0.04 0.03 0.02
0.01 0.02 0.02 0.02 0.03 0.04 0.02 0.01 0.01 0.01 0.01 0.00 0.00 0.01 0.01 0.01 0.01 0.01 0.01 0.01 0.01 0.01 0.00 0.01 0.01 0.01 0.01 0.02 0.02 0.02 0.02 0.02 0.02 0.01 0.01 0.03 0.03 0.04 0.03 0.03 0.04 0.04 0.03
0.03 0.04 0.03 0.03 0.04 0.04 0.05 0.04 0.02 0.01 0.01 0.00 0.00 0.00 0.01 0.01 0.01 0.01 0.01 0.00 0.00 0.00 0.01 0.01 0.01 0.01 0.01 0.01 0.01 0.02 0.02 0.02 0.02 0.01 0.01 0.03 0.03 0.04 0.04 0.05 0.05 0.04 0.04
0.08 0.08 0.07 0.05 0.06 0.06 0.07 0.08 0.05 0.02 0.02 0.01 0.01 0.01 0.01 0.01 0.01 0.01 0.01 0.01 0.00 0.00 0.01 0.01 0.01 0.01 0.02 0.02 0.02 0.02 0.01 0.01 0.02 0.01 0.01 0.02 0.03 0.04 0.04 0.05 0.07 0.08 0.07
0.15 0.15 0.15 0.11 0.11 0.11 0.09 0.08 0.07 0.05 0.04 0.02 0.01 0.02 0.02 0.01 0.01 0.01 0.01 0.01 0.01 0.01 0.01 0.02 0.02 0.03 0.03 0.02 0.03 0.03 0.02 0.01 0.01 0.01 0.01 0.02 0.02 0.03 0.04 0.05 0.06 0.08 0.07
0.17 0.23 0.23 0.21 0.19 0.16 0.12 0.11 0.11 0.08 0.07 0.05 0.03 0.03 0.02 0.02 0.01 0.01 0.01 0.01 0.01 0.01 0.02 0.03 0.05 0.05 0.04 0.04 0.03 0.04 0.02 0.01 0.01 0.01 0.01 0.01 0.01 0.02 0.03 0.05 0.06 0.06 0.07
0.17 0.23 0.25 0.24 0.23 0.18 0.13 0.13 0.15 0.14 0.11 0.09 0.06 0.05 0.03 0.02 0.01 0.01 0.01 0.01 0.01 0.01 0.03 0.04 0.04 0.04 0.04 0.04 0.04 0.05 0.03 0.02 0.01 0.01 0.01 0.01 0.01 0.02 0.02 0.03 0.04 0.04 0.05
0.20 0.19 0.19 0.23 0.25 0.22 0.18 0.14 0.16 0.17 0.13 0.10 0.07 0.07 0.06 0.03 0.01 0.01 0.00 0.01 0.01 0.01 0.02 0.03 0.03 0.03 0.03 0.02 0.03 0.04 0.03 0.02 0.01 0.01 0.01 0.01 0.02 0.01 0.01 0.01 0.02 0.02 0.04
0.26 0.25 0.23 0.33 0.33 0.30 0.22 0.14 0.13 0.13 0.12 0.10 0.07 0.06 0.06 0.05 0.03 0.02 0.01 0.00 0.01 0.01 0.02 0.03 0.02 0.02 0.02 0.02 0.02 0.02 0.02 0.02 0.02 0.01 0.01 0.01 0.02 0.02 0.01 0.01 0.01 0.01 0.02
0.18 0.22 0.21 0.28 0.37 0.28 0.19 0.17 0.16 0.18 0.17 0.14 0.10 0.07 0.05 0.04 0.03 0.02 0.01 0.01 0.01 0.01 0.01 0.02 0.02 0.01 0.01 0.01 0.02 0.01 0.01 0.01 0.01 0.01 0.01 0.01 0.02 0.03 0.02 0.01 0.01 0.01 0.01
0.17 0.18 0.16 0.15 0.26 0.31 0.26 0.24 0.21 0.23 0.23 0.20 0.13 0.09 0.06 0.05 0.04 0.02 0.01 0.01 0.01 0.01 0.01 0.01 0.01 0.02 0.01 0.01 0.01 0.00 0.00 0.00 0.00 0.00 0.01 0.01 0.02 0.02 0.01 0.01 0.01 0.01 0.01
0.13 0.14 0.13 0.16 0.21 0.29 0.28 0.22 0.15 0.12 0.11 0.09 0.09 0.10 0.08 0.05 0.04 0.03 0.02 0.01 0.01 0.01 0.01 0.01 0.01 0.01 0.01 0.01 0.01 0.00 0.00 0.00 0.00 0.00 0.00 0.01 0.01 0.01 0.01 0.01 0.00 0.01 0.01
0.12 0.13 0.12 0.17 0.21 0.23 0.24 0.18 0.14 0.11 0.08 0.08 0.11 0.11 0.09 0.06 0.05 0.04 0.03 0.02 0.02 0.02 0.01 0.01 0.01 0.01 0.01 0.01 0.01 0.00 0.00 0.00 0.00 0.00 0.00 0.00 0.00 0.00 0.00 0.00 0.00 0.00 0.01
0.10 0.09 0.08 0.12 0.19 0.23 0.22 0.17 0.12 0.10 0.08 0.07 0.07 0.08 0.08 0.06 0.05 0.03 0.03 0.02 0.02 0.02 0.03 0.02 0.02 0.02 0.01 0.01 0.01 0.00 0.00 0.00 0.00 0.00 0.00 0.00 0.00 0.00 0.00 0.00 0.00 0.00 0.00
MSLP
1011.06 1010.88 1010.88 1011.07 1011.38 1011.73 1012.05 1012.29 1012.43 1012.47 1012.46 1012.46 1012.51 1012.65 1012.89 1013.20 1013.56 1013.91 1014.21 1014.43 1014.57 1014.64 1014.65 1014.65 1014.65 1014.69 1014.76 1014.87 1015.00 1015.14 1015.29 1015.43 1015.57 1015.70 1015.83 1015.97 1016.12 1016.29 1016.47 1016.67 1016.87 1017.08 1017.28
1010.74 1010.65 1010.75 1011.04 1011.44 1011.87 1012.26 1012.56 1012.73 1012.80 1012.81 1012.82 1012.89 1013.04 1013.28 1013.60 1013.96 1014.29 1014.58 1014.79 1014.92 1014.98 1015.01 1015.02 1015.04 1015.09 1015.17 1015.28 1015.40 1015.52 1015.65 1015.77 1015.89 1016.01 1016.15 1016.30 1016.48 1016.66 1016.86 1017.07 1017.28 1017.49 1017.69
1010.34 1010.35 1010.55 1010.94 1011.43 1011.96 1012.43 1012.79 1013.02 1013.14 1013.19 1013.23 1013.31 1013.47 1013.70 1014.00 1014.32 1014.62 1014.87 1015.05 1015.17 1015.23 1015.26 1015.30 1015.35 1015.42 1015.52 1015.63 1015.75 1015.87 1015.98 1016.10 1016.22 1016.35 1016.51 1016.68 1016.87 1017.07 1017.28 1017.48 1017.69 1017.89 1018.09
1009.97 1010.06 1010.36 1010.83 1011.41 1012.02 1012.56 1013.00 1013.29 1013.46 1013.56 1013.63 1013.72 1013.87 1014.09 1014.35 1014.62 1014.87 1015.07 1015.22 1015.31 1015.38 1015.43 1015.49 1015.57 1015.68 1015.80 1015.93 1016.06 1016.18 1016.30 1016.43 1016.56 1016.72 1016.90 1017.09 1017.29 1017.50 1017.70 1017.89 1018.08 1018.27 1018.46
1009.69 1009.87 1010.23 1010.77 1011.42 1012.08 1012.68 1013.16 1013.51 1013.72 1013.85 1013.95 1014.06 1014.21 1014.40 1014.62 1014.84 1015.04 1015.20 1015.32 1015.40 1015.47 1015.54 1015.64 1015.76 1015.90 1016.05 1016.20 1016.34 1016.48 1016.62 1016.76 1016.93 1017.11 1017.32 1017.53 1017.74 1017.94 1018.12 1018.29 1018.45 1018.62 1018.80
1009.59 1009.82 1010.24 1010.82 1011.49 1012.17 1012.79 1013.29 1013.65 1013.89 1014.05 1014.17 1014.30 1014.45 1014.63 1014.83 1015.02 1015.19 1015.31 1015.41 1015.49 1015.57 1015.68 1015.80 1015.96 1016.13 1016.30 1016.47 1016.63 1016.78 1016.94 1017.11 1017.30 1017.52 1017.75 1017.98 1018.19 1018.37 1018.53 1018.66 1018.79 1018.93 1019.10
1009.66 1009.94 1010.39 1010.98 1011.64 1012.30 1012.89 1013.37 1013.72 1013.96 1014.14 1014.28 1014.44 1014.61 1014.81 1015.01 1015.20 1015.35 1015.47 1015.57 1015.66 1015.75 1015.88 1016.03 1016.21 1016.40 1016.59 1016.76 1016.93 1017.09 1017.26 1017.45 1017.67 1017.91 1018.16 1018.40 1018.61 1018.78 1018.90 1019.00 1019.09 1019.21 1019.37
1009.91 1010.21 1010.67 1011.24 1011.85 1012.45 1012.98 1013.40 1013.72 1013.96 1014.14 1014.32 1014.52 1014.74 1014.98 1015.21 1015.42 1015.59 1015.72 1015.83 1015.93 1016.04 1016.18 1016.35 1016.54 1016.73 1016.91 1017.08 1017.24 1017.40 1017.57 1017.78 1018.01 1018.28 1018.54 1018.79 1019.00 1019.15 1019.25 1019.31 1019.37 1019.47 1019.61
1010.24 1010.57 1011.02 1011.56 1012.11 1012.63 1013.08 1013.43 1013.70 1013.91 1014.11 1014.33 1014.58 1014.87 1015.17 1015.46 1015.72 1015.92 1016.08 1016.20 1016.31 1016.43 1016.58 1016.74 1016.92 1017.10 1017.27 1017.41 1017.55 1017.70 1017.86 1018.07 1018.31 1018.58 1018.86 1019.12 1019.32 1019.47 1019.55 1019.60 1019.64 1019.71 1019.85
1010.59 1010.95 1011.40 1011.89 1012.38 1012.82 1013.18 1013.47 1013.69 1013.89 1014.11 1014.37 1014.69 1015.05 1015.42 1015.77 1016.08 1016.32 1016.50 1016.63 1016.75 1016.87 1017.00 1017.15 1017.31 1017.47 1017.60 1017.73 1017.84 1017.96 1018.12 1018.31 1018.55 1018.82 1019.11 1019.37 1019.58 1019.73 1019.81 1019.85 1019.89 1019.96 1020.08
1010.87 1011.27 1011.73 1012.20 1012.65 1013.02 1013.32 1013.54 1013.73 1013.93 1014.17 1014.48 1014.86 1015.28 1015.71 1016.12 1016.47 1016.73 1016.93 1017.07 1017.18 1017.28 1017.39 1017.52 1017.66 1017.79 1017.90 1018.00 1018.09 1018.19 1018.33 1018.50 1018.73 1019.00 1019.28 1019.55 1019.77 1019.93 1020.03 1020.08 1020.13 1020.20 1020.32
1011.04 1011.50 1011.99 1012.47 1012.89 1013.23 1013.49 1013.69 1013.87 1014.07 1014.33 1014.67 1015.09 1015.56 1016.03 1016.47 1016.84 1017.11 1017.30 1017.43 1017.52 1017.60 1017.70 1017.80 1017.92 1018.04 1018.14 1018.23 1018.31 1018.39 1018.51 1018.67 1018.88 1019.13 1019.40 1019.67 1019.90 1020.08 1020.20 1020.28 1020.35 1020.43 1020.56
1011.10 1011.62 1012.16 1012.66 1013.10 1013.44 1013.70 1013.90 1014.08 1014.30 1014.58 1014.94 1015.38 1015.86 1016.34 1016.78 1017.13 1017.40 1017.57 1017.68 1017.75 1017.82 1017.90 1018.00 1018.11 1018.23 1018.33 1018.43 1018.51 1018.59 1018.70 1018.84 1019.02 1019.25 1019.50 1019.76 1019.99 1020.18 1020.34 1020.45 1020.55 1020.65 1020.79
1011.05 1011.65 1012.24 1012.79 1013.26 1013.64 1013.93 1014.16 1014.37 1014.60 1014.89 1015.26 1015.68 1016.14 1016.60 1017.00 1017.33 1017.56 1017.72 1017.81 1017.87 1017.93 1018.01 1018.12 1018.25 1018.39 1018.52 1018.63 1018.73 1018.82 1018.92 1019.04 1019.20 1019.39 1019.61 1019.84 1020.06 1020.26 1020.43 1020.58 1020.72 1020.85 1021.00
1010.94 1011.59 1012.25 1012.85 1013.38 1013.81 1014.15 1014.43 1014.68 1014.93 1015.22 1015.57 1015.96 1016.37 1016.77 1017.12 1017.41 1017.62 1017.76 1017.85 1017.92 1018.00 1018.10 1018.23 1018.40 1018.57 1018.74 1018.89 1019.02 1019.12 1019.22 1019.32 1019.44 1019.59 1019.76 1019.94 1020.14 1020.33 1020.51 1020.68 1020.85 1021.01 1021.17
1010.79 1011.48 1012.17 1012.83 1013.42 1013.92 1014.33 1014.67 1014.96 1015.24 1015.52 1015.83 1016.17 1016.51 1016.84 1017.14 1017.39 1017.58 1017.73 1017.84 1017.94 1018.06 1018.21 1018.39 1018.60 1018.82 1019.04 1019.23 1019.39 1019.51 1019.61 1019.69 1019.77 1019.86 1019.97 1020.09 1020.24 1020.41 1020.58 1020.76 1020.94 1021.12 1021.30
1010.63 1011.32 1012.03 1012.72 1013.36 1013.92 1014.41 1014.82 1015.16 1015.46 1015.73 1016.01 1016.28 1016.56 1016.83 1017.08 1017.31 1017.50 1017.68 1017.84 1018.00 1018.18 1018.39 1018.63 1018.89 1019.16 1019.41 1019.64 1019.83 1019.97 1020.07 1020.13 1020.17 1020.20 1020.24 1020.31 1020.39 1020.51 1020.66 1020.83 1021.01 1021.21 1021.40
1010.45 1011.11 1011.80 1012.50 1013.18 1013.80 1014.36 1014.84 1015.24 1015.56 1015.84 1016.08 1016.30 1016.52 1016.74 1016.96 1017.18 1017.41 1017.64 1017.87 1018.12 1018.37 1018.65 1018.95 1019.25 1019.56 1019.84 1020.10 1020.31 1020.47 1020.57 1020.61 1020.62 1020.60 1020.58 1020.57 1020.59 1020.65 1020.75 1020.90 1021.07 1021.27 1021.47
1010.24 1010.83 1011.48 1012.17 1012.87 1013.55 1014.17 1014.72 1015.18 1015.54 1015.82 1016.04 1016.23 1016.41 1016.59 1016.80 1017.05 1017.32 1017.62 1017.94 1018.27 1018.61 1018.95 1019.29 1019.63 1019.96 1020.26 1020.53 1020.76 1020.93 1021.03 1021.08 1021.06 1021.01 1020.93 1020.86 1020.82 1020.81 1020.87 1020.97 1021.12 1021.31 1021.50
1009.99 1010.49 1011.08 1011.74 1012.44 1013.16 1013.85 1014.47 1014.99 1015.40 1015.71 1015.93 1016.10 1016.25 1016.42 1016.64 1016.90 1017.23 1017.60 1018.01 1018.42 1018.83 1019.22 1019.60 1019.95 1020.28 1020.59 1020.87 1021.10 1021.28 1021.40 1021.46 1021.45 1021.38 1021.28 1021.16 1021.06 1021.00 1021.00 1021.06 1021.17 1021.33 1021.51
1009.71 1010.12 1010.62 1011.24 1011.94 1012.69 1013.44 1014.12 1014.72 1015.19 1015.53 1015.76 1015.93 1016.08 1016.24 1016.46 1016.76 1017.14 1017.57 1018.04 1018.52 1018.98 1019.41 1019.80 1020.15 1020.48 1020.77 1021.05 1021.29 1021.49 1021.64 1021.72 1021.73 1021.68 1021.56 1021.42 1021.29 1021.18 1021.13 1021.13 1021.21 1021.33 1021.49
1009.42 1009.74 1010.17 1010.74 1011.42 1012.19 1012.98 1013.73 1014.39 1014.93 1015.32 1015.58 1015.76 1015.90 1016.07 1016.30 1016.62 1017.02 1017.49 1018.01 1018.52 1019.01 1019.45 1019.84 1020.19 1020.50 1020.78 1021.06 1021.31 1021.54 1021.72 1021.85 1021.90 1021.87 1021.77 1021.63 1021.48 1021.33 1021.23 1021.19 1021.22 1021.30 1021.42
1009.17 1009.41 1009.77 1010.29 1010.95 1011.72 1012.54 1013.35 1014.07 1014.66 1015.10 1015.40 1015.60 1015.75 1015.92 1016.15 1016.47 1016.88 1017.36 1017.89 1018.42 1018.92 1019.36 1019.74 1020.07 1020.36 1020.64 1020.91 1021.18 1021.44 1021.67 1021.84 1021.94 1021.96 1021.89 1021.76 1021.60 1021.44 1021.30 1021.21 1021.19 1021.22 1021.31
1009.02 1009.20 1009.49 1009.96 1010.58 1011.33 1012.16 1013.00 1013.76 1014.41 1014.89 1015.23 1015.46 1015.63 1015.79 1016.01 1016.32 1016.72 1017.19 1017.71 1018.23 1018.72 1019.15 1019.52 1019.83 1020.12 1020.39 1020.67 1020.96 1021.25 1021.52 1021.74 1021.90 1021.96 1021.92 1021.82 1021.65 1021.47 1021.31 1021.18 1021.11 1021.09 1021.13
1008.99 1009.12 1009.36 1009.76 1010.32 1011.04 1011.85 1012.69 1013.48 1014.16 1014.69 1015.07 1015.32 1015.51 1015.68 1015.89 1016.18 1016.55 1017.00 1017.50 1018.00 1018.47 1018.89 1019.25 1019.56 1019.84 1020.12 1020.41 1020.72 1021.03 1021.33 1021.60 1021.79 1021.89 1021.89 1021.80 1021.64 1021.45 1021.26 1021.09 1020.97 1020.91 1020.90
1009.09 1009.18 1009.36 1009.69 1010.18 1010.83 1011.60 1012.42 1013.21 1013.91 1014.47 1014.88 1015.17 1015.38 1015.56 1015.77 1016.04 1016.40 1016.82 1017.30 1017.78 1018.24 1018.64 1019.00 1019.32 1019.60 1019.89 1020.18 1020.50 1020.83 1021.15 1021.43 1021.65 1021.77 1021.79 1021.72 1021.57 1021.37 1021.16 1020.96 1020.80 1020.69 1020.63
Thickness
5781 5782 5780 5779 5778 5776 5776 5776 5775 5774 5773 5772 5771 5770 5769 5767 5766 5765 5763 5762 5761 5760 5759 5757 5757 5755 5754 5753 5751 5750 5749 5747 5746 5745 5743 5742 5741 5739 5738 5737 5736 5735 5734
5787 5783 5780 5778 5776 5775 5774 5773 5773 5772 5771 5770 5769 5768 5767 5766 5764 5763 5762 5760 5759 5758 5757 5755 5754 5753 5751 5750 5749 5747 5746 5745 5743 5742 5741 5739 5738 5737 5736 5734 5733 5733 5732
5787 5783 5780 5777 5775 5773 5772 5771 5770 5769 5769 5768 5767 5766 5765 5764 5762 5761 5760 5759 5757 5756 5755 5753 5752 5750 5749 5747 5746 5745 5743 5742 5741 5739 5738 5737 5735 5734 5733 5732 5731 5730 5729
5786 5782 5779 5776 5774 5772 5770 5769 5768 5767 5766 5766 5765 5764 5763 5762 5761 5759 5758 5757 5755 5754 5753 5751 5750 5748 5746 5745 5744 5742 5741 5739 5738 5736 5735 5734 5733 5732 5731 5729 5728 5727 5726
5785 5781 5778 5775 5772 5770 5769 5767 5766 5765 5764 5763 5762 5762 5761 5760 5759 5757 5756 5755 5753 5752 5751 5749 5747 5746 5744 5743 5741 5740 5739 5737 5735 5734 5732 5731 5730 5729 5728 5727 5726 5725 5724
5783 5780 5777 5773 5771 5769 5767 5766 5764 5763 5762 5761 5760 5759 5758 5757 5756 5755 5754 5753 5751 5750 5749 5747 5745 5744 5742 5741 5739 5738 5737 5735 5732 5731 5730 5728 5728 5727 5726 5725 5724 5723 5722
5781 5778 5775 5772 5770 5767 5766 5764 5762 5761 5760 5759 5758 5757 5756 5755 5754 5753 5751 5750 5749 5748 5746 5745 5743 5742 5740 5739 5738 5736 5735 5733 5730 5729 5727 5726 5725 5725 5724 5722 5721 5720 5720
5780 5777 5774 5771 5768 5766 5764 5762 5761 5760 5758 5757 5756 5755 5754 5753 5751 5750 5749 5748 5747 5745 5744 5742 5741 5740 5738 5737 5736 5735 5733 5731 5728 5727 5725 5724 5723 5722 5721 5720 5719 5718 5717
5778 5775 5772 5769 5767 5764 5763 5761 5759 5758 5757 5755 5754 5753 5752 5750 5749 5748 5747 5745 5744 5743 5742 5740 5739 5738 5737 5736 5735 5733 5732 5729 5727 5725 5723 5722 5721 5720 5719 5718 5717 5716 5715
5775 5772 5770 5767 5765 5763 5761 5759 5758 5756 5755 5754 5752 5751 5750 5748 5747 5746 5744 5743 5742 5741 5740 5739 5737 5736 5735 5734 5733 5732 5730 5727 5725 5723 5722 5721 5720 5719 5718 5717 5716 5715 5714
5771 5770 5768 5765 5763 5761 5759 5758 5757 5755 5754 5752 5751 5749 5748 5746 5745 5744 5743 5742 5740 5739 5738 5737 5735 5734 5733 5733 5732 5730 5728 5726 5723 5722 5720 5720 5718 5717 5716 5715 5714 5713 5712
5768 5767 5766 5763 5761 5758 5757 5756 5754 5753 5751 5750 5749 5747 5746 5744 5743 5742 5741 5740 5739 5738 5736 5735 5734 5733 5732 5731 5730 5728 5726 5724 5722 5720 5719 5718 5717 5716 5714 5713 5712 5711 5710
5770 5767 5764 5762 5759 5757 5755 5753 5752 5750 5749 5747 5746 5745 5743 5742 5741 5740 5739 5738 5737 5736 5735 5733 5732 5731 5730 5729 5728 5727 5725 5723 5721 5719 5718 5717 5716 5714 5713 5712 5711 5710 5709
5769 5766 5764 5761 5757 5754 5752 5750 5749 5747 5746 5744 5743 5742 5741 5739 5738 5737 5736 5735 5735 5734 5732 5731 5730 5729 5728 5727 5726 5725 5723 5722 5720 5718 5717 5716 5715 5713 5712 5711 5709 5708 5707
5767 5765 5763 5759 5755 5751 5749 5747 5746 5745 5743 5742 5741 5740 5739 5738 5736 5735 5734 5734 5733 5732 5731 5730 5728 5728 5727 5726 5725 5724 5722 5721 5719 5718 5716 5715 5714 5712 5711 5710 5708 5707 5706
5768 5764 5761 5757 5753 5750 5747 5745 5743 5742 5741 5740 5738 5737 5737 5736 5735 5734 5733 5732 5731 5731 5730 5729 5728 5727 5726 5725 5724 5723 5722 5720 5719 5717 5716 5715 5713 5712 5710 5709 5708 5706 5706
5767 5763 5759 5756 5752 5748 5745 5742 5740 5739 5738 5737 5736 5735 5735 5734 5734 5733 5731 5731 5730 5729 5728 5727 5726 5725 5725 5724 5723 5722 5721 5719 5718 5717 5715 5714 5713 5711 5710 5709 5707 5706 5705
5765 5760 5756 5754 5750 5746 5743 5740 5738 5736 5735 5735 5734 5734 5733 5733 5733 5732 5730 5730 5729 5728 5727 5726 5725 5723 5723 5722 5721 5720 5720 5718 5717 5716 5715 5713 5712 5711 5710 5709 5708 5706 5705
5763 5759 5754 5751 5748 5744 5741 5738 5736 5733 5733 5732 5732 5732 5732 5732 5732 5731 5730 5729 5728 5727 5726 5725 5723 5722 5721 5720 5720 5719 5718 5718 5717 5716 5715 5714 5713 5712 5710 5709 5708 5707 5706
5764 5759 5754 5750 5746 5742 5738 5735 5733 5731 5730 5730 5731 5731 5731 5731 5730 5730 5729 5728 5727 5726 5724 5723 5721 5721 5720 5719 5719 5717 5716 5716 5716 5716 5715 5714 5713 5712 5711 5710 5709 5708 5707
5762 5758 5753 5748 5744 5740 5735 5732 5730 5729 5729 5728 5729 5730 5731 5730 5729 5729 5728 5727 5726 5725 5724 5723 5720 5719 5717 5717 5715 5713 5713 5715 5715 5716 5715 5714 5714 5713 5712 5711 5710 5709 5708
5761 5757 5753 5749 5744 5740 5737 5735 5732 5729 5728 5728 5729 5729 5729 5729 5728 5728 5728 5727 5726 5724 5722 5722 5720 5718 5716 5716 5714 5709 5707 5709 5713 5716 5715 5715 5715 5715 5714 5713 5712 5711 5710
5761 5757 5753 5749 5745 5741 5738 5734 5730 5726 5725 5724 5725 5726 5728 5728 5727 5728 5728 5727 5726 5725 5722 5721 5720 5718 5715 5714 5715 5711 5705 5703 5708 5713 5715 5716 5716 5716 5716 5715 5714 5713 5712
5762 5758 5754 5749 5744 5741 5738 5734 5730 5726 5724 5725 5726 5726 5726 5726 5727 5728 5727 5727 5726 5724 5723 5722 5721 5720 5717 5714 5713 5713 5713 5711 5707 5707 5712 5715 5716 5716 5717 5717 5716 5715 5714
5761 5756 5753 5749 5744 5740 5737 5735 5731 5728 5727 5726 5725 5725 5725 5726 5727 5727 5727 5726 5725 5724 5723 5722 5721 5720 5719 5716 5714 5713 5711 5710 5710 5707 5706 5710 5713 5717 5717 5717 5717 5717 5716
5760 5755 5752 5747 5743 5739 5736 5734 5732 5729 5726 5725 5724 5723 5724 5725 5725 5726 5726 5725 5724 5723 5722 5722 5721 5720 5719 5718 5716 5715 5713 5711 5709 5708 5706 5707 5709 5714 5717 5718 5718 5718 5717